星链-36167(STARLINK-36167)

导读

STARLINK-36167是美国太空探索技术公司星链互联网星座计划中的一颗卫星,于2025年12月10日发射入轨。星链项目旨在构建全球卫星互联网,该卫星加入星座后,将进一步完善星座覆盖密度,提升全球偏远区域、海洋空域等场景的高速互联网接入服务能力,强化星链网络的服务稳定性与覆盖范围。

Basic Information
目录编号:
67011
目录名称:
STARLINK-36167
国际标识:
2025-293J
轨道中心:
EARTH
卫星名称:
星链-36167
卫星全名:
星链-36167(STARLINK-36167)
卫星状态:
在轨 (已飞行185 天)
发射日期:
2025-12-10 UTC
国别 :
美国 (US)
星等 :
--
Orbit Information
数据来源 国际轨道数据 AOE轨道数据
星历时间 2026-06-13T04:04:13+0800
11小时前
查看轨道信息
2026-06-12T01:00:00+0800
1天前
查看轨道信息
半长轴 6950.18km 6950.194km
偏心率 0.0003619 0.0003363
轨道倾角 70.000° 70.001°
近地点辐角 269.058° 281.895°
升交点赤经 214.403° 217.246°
平近点角 91.017° 115.882°
近地点 569.527km 569.719km
远地点 574.559km 574.395km
周期 96.107分钟 96.107分钟
每日圈数 14.983344 14.983299
Detailed Information
固有亮度:
5
最大亮度:
2.5
卫星平台:
Starlink V1.0
覆盖范围:
全球
运营商:
太空探索技术公司
运营商所在国:
美国
制造商(研发单位):
太空探索技术公司
制造商所在国:
美国
使用方式:
暂无
Satellite Introduction
Starlink 计划是 SpaceX 推出的全球卫星互联网项目,通过发射低轨道卫星,为全球尤其是偏远地区提供高速、低延迟的互联网服务。自 2019 年起,Starlink 已部署数千颗卫星,旨在缩小全球数字鸿沟,推动互联网普及。该项目还为军事、航空等行业提供通信支持,带来广泛经济效益。
2D Orbit Map
3D Orbit Map
Orbit Altitude Analysis Chart
Orbit Inclination Analysis Chart
Orbit Comprehensive Analysis Chart
View Comprehensive Chart